Weather History for KSPW - February, 2014

Change the Weather History Date:

Monday, February 3, 2014

  Actual Average Record
Temperature  
Mean Temperature 10 °F -  
Max Temperature 21 °F 22 °F 55 °F (2005)
Min Temperature -2 °F 4 °F -21 °F (1989)
Degree Days  
Heating Degree Days 56    
Moisture  
Dew Point 4 °F    
Average Humidity 77    
Maximum Humidity 88    
Minimum Humidity 62    
Precipitation  
Precipitation 0.00 in - - ()
Sea Level Pressure  
Sea Level Pressure 30.29 in    
Wind  
Wind Speed 6 mph (NNE)    
Max Wind Speed 12 mph    
Max Gust Speed -    
Visibility 9 miles    
Events Snow    
Averages and records for this station are not official NWS values.
T = Trace of Precipitation, MM = Missing Value Source: NWS Daily Summary

Daily Weather History Graph

Daily Weather History Graph

Search for Another Location

Airport or City:

Trip Planner

Search our weather history database for the weather conditions in past years. The results will help you decide how hot, cold, wet, or windy it might be!

Date:

Astronomy

Feb. 03, 2014 Rise Set
Actual Time 7:33 AM CST 5:35 PM CST
Civil Twilight 7:03 AM CST 6:05 PM CST
Nautical Twilight 6:29 AM CST 6:39 PM CST
Astronomical Twilight 5:56 AM CST 7:13 PM CST
Moon 9:28 AM CST (2/3) 10:36 PM CST (2/3)
Length of Visible Light 11h 02m
Length of Day
10h 01m
Waxing Crescent, 20% of the Moon is Illuminated
Feb 3
Waxing Crescent
Feb 6
First Quarter
Feb 14
Full
Feb 22
Last Quarter
Mar 1
New

Hourly Weather History & Observations

Time (CST) Temp. Windchill Dew Point Humidity Pressure Visibility Wind Dir Wind Speed Gust Speed Precip Events Conditions
12:53 AM 3.0 °F -9.3 °F -0.9 °F 84% 30.24 in 10.0 mi South 6.9 mph - N/A   Clear
1:53 AM 3.9 °F -8.2 °F -0.0 °F 84% 30.24 in 10.0 mi South 6.9 mph - N/A   Clear
2:53 AM 3.9 °F -8.2 °F 1.0 °F 88% 30.25 in 10.0 mi SW 6.9 mph - N/A   Clear
3:53 AM 3.9 °F -5.3 °F -0.0 °F 84% 30.24 in 10.0 mi SW 4.6 mph - N/A   Clear
4:53 AM 5.0 °F -4.1 °F 1.0 °F 84% 30.24 in 10.0 mi WSW 4.6 mph - N/A   Clear
5:53 AM 1.9 °F -5.6 °F -2.0 °F 83% 30.25 in 10.0 mi SW 3.5 mph - N/A   Clear
6:53 AM -2.0 °F -10.1 °F -5.1 °F 87% 30.26 in 8.0 mi West 3.5 mph - N/A   Clear
7:45 AM -2.0 °F - -8.0 °F 76% 30.17 in 2.5 mi Calm Calm - N/A   Haze
7:53 AM -2.9 °F - -8.0 °F 79% 30.28 in 6.0 mi Calm Calm - N/A   Haze
8:53 AM -0.0 °F -7.9 °F -4.0 °F 83% 30.30 in 7.0 mi NNW 3.5 mph - N/A   Clear
9:53 AM 8.1 °F 1.4 °F 5.0 °F 87% 30.32 in 10.0 mi NW 3.5 mph - N/A   Clear
10:53 AM 12.0 °F - 8.1 °F 84% 30.31 in 10.0 mi Calm Calm - N/A   Clear
11:53 AM 17.1 °F 8.7 °F 7.0 °F 65% 30.31 in 10.0 mi NNE 5.8 mph - 0.00 in   Clear
12:53 PM 19.0 °F 10.0 °F 9.0 °F 65% 30.29 in 10.0 mi NNE 6.9 mph - N/A   Clear
1:53 PM 19.9 °F 10.1 °F 9.0 °F 62% 30.28 in 10.0 mi NNE 8.1 mph - N/A   Clear
2:53 PM 21.0 °F 12.4 °F 10.0 °F 63% 30.29 in 10.0 mi NE 6.9 mph - N/A   Clear
3:53 PM 19.0 °F 10.0 °F 10.0 °F 68% 30.32 in 10.0 mi ENE 6.9 mph - N/A   Clear
4:53 PM 17.1 °F 5.8 °F 8.1 °F 68% 30.31 in 10.0 mi ENE 9.2 mph - N/A   Mostly Cloudy
5:53 PM 15.1 °F 2.5 °F 8.1 °F 74% 30.30 in 10.0 mi NE 10.4 mph - N/A   Mostly Cloudy
6:53 PM 14.0 °F 2.0 °F 8.1 °F 77% 30.33 in 10.0 mi NE 9.2 mph - N/A   Overcast
7:53 PM 15.1 °F 3.3 °F 8.1 °F 74% 30.35 in 10.0 mi NE 9.2 mph - N/A   Overcast
8:53 PM 14.0 °F 0.5 °F 8.1 °F 77% 30.35 in 10.0 mi NE 11.5 mph - N/A   Overcast
9:53 PM 14.0 °F 2.0 °F 8.1 °F 77% 30.35 in 7.0 mi NE 9.2 mph - 0.00 in Snow Light Snow
10:53 PM 12.9 °F -0.9 °F 7.0 °F 77% 30.37 in 4.0 mi NE 11.5 mph - 0.00 in Snow Light Snow
11:53 PM 12.9 °F -0.9 °F 7.0 °F 77% 30.38 in 4.0 mi NE 11.5 mph - 0.00 in Snow Light Snow